{"data":{"norad_id":40056,"epoch":"2026-05-25T02:46:19.401312Z","epoch_age_seconds":75750,"freshness":"FRESH","line1":"1 40056U 14034D   26145.11550233  .00000736  00000+0  10168-3 0  9999","line2":"2 40056  98.3155  19.6210 0014142  85.9275 274.3552 14.81231165631926","mean_motion":14.81231165,"eccentricity":0.0014142,"inclination_deg":98.3155,"raan_deg":19.621,"arg_perigee_deg":85.9275,"mean_anomaly_deg":274.3552,"bstar":0.00010168,"rev_number":63192,"period_min":97.216426039753,"perigee_km":615.53617768054,"apogee_km":635.34509666952,"semimajor_km":7003.577637175,"source":"CELESTRAK","updated_at":"2026-05-25T13:38:25.524169Z"}}